• In Deutschland
  • Länderverzeichnis
  • Für 7 Tage
  • Wassertemperatur
  • Satellitenkarten
  • Wetterkarte
  • Widgets
  • user-avatar
    Anmelden

    Stündliche Wetter Canberra

    Heute, 17 August, Donnerstag

    Zeit Temperatur Niederschläge Wind Luftdruck Luftfeuchtigkeit
    00:00 +6°C° 0 mm 5 m/S 703 mmHg 79%
    01:00 +6°C° 0 mm 5 m/S 702 mmHg 79%
    02:00 +5°C° 0 mm 5 m/S 702 mmHg 79%
    03:00 +5°C° 0 mm 5 m/S 702 mmHg 79%
    04:00 +5°C° 0 mm 4 m/S 701 mmHg 80%
    05:00 +5°C° 0 mm 4 m/S 701 mmHg 81%
    06:00 +4°C° 0 mm 4 m/S 702 mmHg 82%
    07:00 +4°C° 0 mm 4 m/S 702 mmHg 83%
    08:00 +6°C° 0 mm 5 m/S 702 mmHg 76%
    09:00 +8°C° 0 mm 6 m/S 702 mmHg 69%
    10:00 +9°C° 0 mm 6 m/S 702 mmHg 62%
    11:00 +10°C° 0 mm 7 m/S 702 mmHg 59%
    12:00 +10°C° 0 mm 8 m/S 701 mmHg 56%
    13:00 +11°C° 0 mm 8 m/S 701 mmHg 52%
    14:00 +11°C° 0,1 mm 8 m/S 701 mmHg 54%
    15:00 +10°C° 0,1 mm 8 m/S 700 mmHg 55%
    16:00 +10°C° 0,1 mm 7 m/S 700 mmHg 56%
    17:00 +9°C° 0,2 mm 7 m/S 701 mmHg 61%
    18:00 +8°C° 0,2 mm 6 m/S 701 mmHg 66%
    19:00 +7°C° 0,2 mm 5 m/S 701 mmHg 70%
    20:00 +7°C° 0,2 mm 5 m/S 701 mmHg 72%
    21:00 +7°C° 0,2 mm 5 m/S 701 mmHg 74%
    22:00 +6°C° 0,2 mm 5 m/S 701 mmHg 75%
    23:00 +6°C° 0,4 mm 5 m/S 701 mmHg 78%

    Morgen, 18 August, Freitag

    Zeit Temperatur Niederschläge Wind Luftdruck Luftfeuchtigkeit
    00:00 +4°C° 0,4 mm 6 m/S 701 mmHg 81%
    01:00 +4°C° 0,4 mm 6 m/S 701 mmHg 84%
    02:00 +3°C° 0,3 mm 6 m/S 701 mmHg 84%
    03:00 +3°C° 0,3 mm 6 m/S 701 mmHg 84%
    04:00 +2°C° 0,3 mm 6 m/S 701 mmHg 85%
    05:00 +2°C° 0,2 mm 6 m/S 702 mmHg 83%
    06:00 +2°C° 0,2 mm 6 m/S 702 mmHg 81%
    07:00 +2°C° 0,2 mm 6 m/S 702 mmHg 80%
    08:00 +3°C° 0,1 mm 7 m/S 703 mmHg 75%
    09:00 +2°C° 0,1 mm 8 m/S 703 mmHg 71%
    10:00 +4°C° 0,1 mm 8 m/S 704 mmHg 66%
    11:00 +4°C° 0,1 mm 8 m/S 704 mmHg 65%
    12:00 +5°C° 0,1 mm 8 m/S 704 mmHg 63%
    13:00 +5°C° 0,1 mm 8 m/S 704 mmHg 62%
    14:00 +5°C° 0,1 mm 8 m/S 704 mmHg 62%
    15:00 +5°C° 0,1 mm 7 m/S 704 mmHg 62%
    16:00 +5°C° 0,1 mm 7 m/S 704 mmHg 62%
    17:00 +4°C° 0,1 mm 7 m/S 705 mmHg 67%
    18:00 +3°C° 0,1 mm 6 m/S 706 mmHg 73%
    19:00 +3°C° 0,1 mm 5 m/S 706 mmHg 78%
    20:00 +2°C° 0 mm 5 m/S 707 mmHg 78%
    21:00 +2°C° 0 mm 5 m/S 707 mmHg 79%
    22:00 +2°C° 0 mm 5 m/S 708 mmHg 79%
    23:00 +1°C° 0 mm 4 m/S 708 mmHg 80%

    übermorgen, 19 August, Samstag

    Zeit Temperatur Niederschläge Wind Luftdruck Luftfeuchtigkeit
    00:00 +1°C° 0 mm 4 m/S 708 mmHg 80%
    01:00 +1°C° 0 mm 4 m/S 709 mmHg 81%
    02:00 0°C° 0 mm 4 m/S 709 mmHg 81%
    03:00 +1°C° 0 mm 3 m/S 709 mmHg 81%
    04:00 +1°C° 0 mm 3 m/S 709 mmHg 82%
    05:00 0°C° 0 mm 3 m/S 710 mmHg 82%
    06:00 +1°C° 0 mm 2 m/S 710 mmHg 83%
    07:00 -1°C° 0 mm 2 m/S 711 mmHg 84%
    08:00 +1°C° 0 mm 3 m/S 711 mmHg 74%
    09:00 +3°C° 0 mm 3 m/S 712 mmHg 64%
    10:00 +5°C° 0 mm 4 m/S 713 mmHg 54%
    11:00 +6°C° 0 mm 4 m/S 713 mmHg 51%
    12:00 +7°C° 0 mm 4 m/S 713 mmHg 48%
    13:00 +8°C° 0 mm 4 m/S 713 mmHg 45%
    14:00 +8°C° 0 mm 4 m/S 713 mmHg 46%
    15:00 +7°C° 0 mm 4 m/S 713 mmHg 48%
    16:00 +7°C° 0 mm 4 m/S 713 mmHg 49%
    17:00 +5°C° 0 mm 3 m/S 713 mmHg 57%
    18:00 +4°C° 0 mm 2 m/S 714 mmHg 64%
    19:00 +2°C° 0 mm 2 m/S 714 mmHg 72%
    20:00 +1°C° 0 mm 2 m/S 714 mmHg 75%
    21:00 -1°C° 0 mm 2 m/S 715 mmHg 78%
    22:00 +1°C° 0 mm 1 m/S 715 mmHg 82%
    23:00 0°C° 0 mm 1 m/S 715 mmHg 83%

    20 August, Sonntag

    Zeit Temperatur Niederschläge Wind Luftdruck Luftfeuchtigkeit
    00:00 0°C° 0 mm 1 m/S 715 mmHg 84%
    01:00 0°C° 0 mm 1 m/S 715 mmHg 86%
    02:00 0°C° 0 mm 1 m/S 714 mmHg 86%
    03:00 -1°C° 0 mm 1 m/S 714 mmHg 87%
    04:00 -1°C° 0 mm 1 m/S 714 mmHg 88%
    05:00 -1°C° 0 mm 1 m/S 714 mmHg 87%
    06:00 -1°C° 0 mm 1 m/S 715 mmHg 87%
    07:00 -1°C° 0 mm 1 m/S 715 mmHg 87%
    08:00 +2°C° 0 mm 1 m/S 715 mmHg 74%
    09:00 +6°C° 0 mm 1 m/S 715 mmHg 61%
    10:00 +9°C° 0 mm 1 m/S 715 mmHg 49%
    11:00 +10°C° 0 mm 1 m/S 715 mmHg 45%
    12:00 +11°C° 0 mm 1 m/S 714 mmHg 42%
    13:00 +12°C° 0 mm 2 m/S 714 mmHg 39%
    14:00 +12°C° 0 mm 1 m/S 713 mmHg 42%
    15:00 +11°C° 0 mm 1 m/S 713 mmHg 44%
    16:00 +11°C° 0 mm 1 m/S 712 mmHg 47%
    17:00 +8°C° 0 mm 1 m/S 712 mmHg 58%
    18:00 +6°C° 0 mm 1 m/S 712 mmHg 69%
    19:00 +3°C° 0 mm 1 m/S 712 mmHg 80%
    20:00 +3°C° 0 mm 1 m/S 712 mmHg 83%
    21:00 +2°C° 0 mm 1 m/S 712 mmHg 85%
    22:00 0°C° 0 mm 0 m/S 712 mmHg 88%
    23:00 0°C° 0 mm 0 m/S 711 mmHg 88%

    21 August, Montag

    Zeit Temperatur Niederschläge Wind Luftdruck Luftfeuchtigkeit
    00:00 0°C° 0 mm 0 m/S 711 mmHg 88%
    01:00 0°C° 0 mm 0 m/S 710 mmHg 89%
    02:00 0°C° 0 mm 0 m/S 710 mmHg 87%
    03:00 +1°C° 0 mm 1 m/S 709 mmHg 85%
    04:00 +2°C° 0 mm 1 m/S 709 mmHg 83%
    05:00 +2°C° 0 mm 1 m/S 709 mmHg 79%
    06:00 +3°C° 0 mm 1 m/S 709 mmHg 75%
    07:00 +3°C° 0 mm 1 m/S 709 mmHg 71%
    08:00 +3°C° 0,1 mm 2 m/S 709 mmHg 70%
    09:00 +4°C° 0,1 mm 2 m/S 708 mmHg 69%
    10:00 +4°C° 0,1 mm 3 m/S 708 mmHg 67%
    11:00 +5°C° 0 mm 3 m/S 707 mmHg 67%
    12:00 +6°C° 0 mm 4 m/S 707 mmHg 66%
    13:00 +7°C° 0 mm 5 m/S 706 mmHg 65%
    14:00 +7°C° 0 mm 4 m/S 706 mmHg 69%
    15:00 +6°C° 0 mm 4 m/S 705 mmHg 73%
    16:00 +7°C° 0 mm 3 m/S 705 mmHg 77%
    17:00 +5°C° 0,1 mm 3 m/S 705 mmHg 81%
    18:00 +4°C° 0,1 mm 3 m/S 706 mmHg 85%
    19:00 +5°C° 0,1 mm 2 m/S 706 mmHg 89%
    20:00 +4°C° 0 mm 2 m/S 705 mmHg 90%
    21:00 +4°C° 0 mm 2 m/S 705 mmHg 91%
    22:00 +4°C° 0 mm 1 m/S 705 mmHg 91%
    23:00 +4°C° 0 mm 1 m/S 705 mmHg 91%

    22 August, Dienstag

    Zeit Temperatur Niederschläge Wind Luftdruck Luftfeuchtigkeit
    00:00 +4°C° 0 mm 1 m/S 704 mmHg 90%
    01:00 +3°C° 0 mm 2 m/S 704 mmHg 89%
    02:00 +3°C° 0 mm 2 m/S 704 mmHg 91%
    03:00 +4°C° 0 mm 2 m/S 704 mmHg 92%
    04:00 +4°C° 0 mm 2 m/S 704 mmHg 94%
    05:00 +4°C° 0 mm 1 m/S 705 mmHg 94%
    06:00 +4°C° 0 mm 1 m/S 705 mmHg 95%
    07:00 +4°C° 0 mm 1 m/S 706 mmHg 96%
    08:00 +5°C° 0 mm 2 m/S 707 mmHg 89%
    09:00 +8°C° 0 mm 2 m/S 707 mmHg 82%
    10:00 +10°C° 0 mm 2 m/S 708 mmHg 75%
    11:00 +11°C° 0 mm 3 m/S 708 mmHg 72%
    12:00 +11°C° 0 mm 3 m/S 708 mmHg 70%
    13:00 +12°C° 0 mm 4 m/S 708 mmHg 68%
    14:00 +11°C° 0 mm 4 m/S 708 mmHg 69%
    15:00 +11°C° 0 mm 4 m/S 708 mmHg 70%
    16:00 +10°C° 0 mm 4 m/S 708 mmHg 71%
    17:00 +8°C° 0 mm 4 m/S 709 mmHg 76%
    18:00 +6°C° 0 mm 4 m/S 709 mmHg 81%
    19:00 +5°C° 0 mm 3 m/S 710 mmHg 87%
    20:00 +5°C° 0 mm 3 m/S 710 mmHg 88%
    21:00 +5°C° 0 mm 3 m/S 710 mmHg 89%
    22:00 +4°C° 0 mm 3 m/S 710 mmHg 90%
    23:00 +5°C° 0 mm 3 m/S 710 mmHg 91%
    Mehr zeigen